Theta_e
339 340 340 339 338 338 337 336 335 335 335 334 334 333 332 332 333 333 333 332 331 330 330 332 333 331 331 331 331 331 330 329 328 327 327 323 316 312 312 311 310 308 306 304 303 301 301 301 301 302 302 301 301 301 301 304 310 314 314 313 313 310 306 301 300 301 300 299 299 299 298 297 297 297 297 298 297 296 297 297 297 298 299 299 298
339 339 339 339 338 338 337 336 335 334 334 334 334 332 331 332 333 333 332 331 329 328 329 332 332 331 330 330 330 329 328 328 328 327 325 320 313 311 311 310 308 306 304 303 302 301 301 301 301 301 301 301 301 301 300 300 304 308 311 311 310 305 301 299 299 299 298 298 297 297 297 297 297 297 297 297 297 296 296 297 297 298 298 298 299
339 339 339 338 337 338 337 336 334 334 334 334 334 332 331 332 333 333 332 330 328 328 330 331 331 331 330 330 329 328 328 327 326 326 323 316 312 311 310 308 306 305 303 302 301 301 301 301 301 301 301 301 300 300 300 300 301 303 306 308 306 302 299 298 298 298 297 297 297 297 297 297 297 298 297 297 297 297 297 296 296 297 297 297 299
338 339 338 337 337 337 336 335 334 334 334 334 334 333 332 332 332 331 330 328 328 329 331 330 330 330 330 329 329 328 326 324 324 325 321 314 311 310 309 307 305 303 302 301 301 301 301 301 301 301 301 300 300 300 300 301 302 303 305 306 304 301 299 298 298 298 297 297 297 297 297 297 297 297 297 297 298 297 297 296 296 297 296 297 298
338 338 337 337 338 336 334 334 334 334 335 335 334 332 332 332 331 329 329 329 330 330 330 330 329 330 329 328 328 326 325 323 324 324 319 312 310 309 308 306 304 302 301 300 300 300 300 301 301 301 301 300 300 300 300 300 301 302 303 303 302 300 300 299 298 298 297 297 297 297 297 297 297 297 297 297 297 297 297 297 296 296 296 296 298
338 338 337 337 338 336 334 334 334 334 335 334 332 332 332 332 331 330 331 331 331 331 331 330 329 329 328 327 326 325 324 322 321 320 314 310 309 308 307 305 303 301 300 300 300 300 300 301 301 301 300 300 300 300 300 300 301 301 301 300 300 299 299 299 298 297 297 297 297 297 297 296 296 296 296 296 297 297 297 297 297 296 296 296 297
337 337 337 338 338 336 335 335 335 335 334 332 332 332 332 333 332 332 332 331 331 330 330 330 329 328 327 326 325 324 322 320 319 316 312 309 308 307 306 304 302 301 300 300 300 300 300 300 300 300 300 300 300 299 299 300 300 300 300 299 299 299 298 298 298 297 297 297 297 297 296 296 296 296 296 297 297 297 297 297 298 297 297 296 297
336 337 337 338 337 337 336 336 336 336 333 332 333 333 333 333 333 332 331 330 330 330 330 329 328 327 326 324 323 322 321 319 318 315 311 308 308 307 306 304 301 300 300 300 300 300 300 300 300 300 300 300 300 299 299 299 299 299 299 299 299 298 298 298 297 297 297 297 297 296 296 296 296 295 296 297 297 297 297 297 298 298 298 297 297
336 337 338 338 338 338 337 337 337 336 334 333 334 334 333 333 332 331 330 329 330 330 329 328 327 326 324 323 321 320 319 319 318 316 311 308 308 307 305 303 301 300 300 300 300 300 300 300 299 299 299 299 300 300 299 299 300 299 299 300 299 298 298 298 297 297 297 297 296 296 296 296 295 295 296 296 297 297 298 298 298 298 299 298 298
336 337 338 339 339 338 338 338 337 337 335 334 334 334 333 332 331 330 329 328 329 329 328 326 326 325 324 322 321 320 319 319 318 315 311 308 307 307 305 303 301 300 300 299 300 300 299 299 299 299 299 299 300 300 300 300 300 300 300 300 299 298 298 298 298 297 297 297 296 296 296 295 295 295 295 296 296 297 297 298 297 297 298 298 298
338 338 338 339 340 339 338 337 336 336 336 335 334 334 333 331 330 329 329 328 328 328 327 326 325 324 323 322 321 320 319 318 317 314 311 308 307 306 304 302 301 300 299 299 299 299 299 299 299 298 298 298 299 299 300 300 300 300 300 300 299 298 298 298 298 297 297 296 296 296 296 295 295 295 295 295 296 297 297 298 298 297 297 298 298
338 338 339 339 340 339 337 337 337 337 336 334 333 333 333 331 329 329 329 328 328 327 326 325 325 323 322 321 321 320 319 318 317 313 310 308 307 305 304 302 301 300 299 299 299 299 299 299 298 298 298 298 298 299 300 300 300 300 299 299 299 298 297 298 298 297 296 296 296 296 296 296 296 296 295 295 296 296 297 297 298 297 298 298 298
337 338 340 340 340 338 337 337 337 336 335 333 331 330 330 330 329 329 329 328 327 327 325 325 324 323 322 321 320 320 319 318 317 313 309 308 307 305 304 303 302 300 300 299 299 299 299 299 298 298 298 298 298 299 299 299 299 299 298 298 298 297 297 297 297 297 297 296 297 297 296 296 296 296 296 296 296 296 297 297 297 297 298 298 298
337 338 339 340 339 338 338 338 336 335 334 332 329 328 329 330 329 329 329 328 327 326 325 324 323 322 322 321 320 320 319 318 317 313 309 308 307 306 304 303 302 301 300 299 298 298 298 298 298 298 298 298 298 299 299 299 298 298 298 298 297 297 297 297 297 297 297 297 298 298 297 297 297 297 297 297 296 297 297 297 297 297 297 298 298
338 339 339 339 338 338 337 336 334 334 333 330 329 328 327 329 330 329 328 327 326 325 325 324 323 322 321 321 320 319 318 317 316 313 310 308 307 306 305 303 302 300 299 298 298 298 298 298 298 298 298 298 298 298 298 298 298 298 298 298 297 297 297 297 297 298 298 298 298 298 298 298 298 298 298 297 297 297 297 297 297 297 297 298 298
338 339 339 338 337 336 335 334 333 333 332 329 328 327 327 328 329 329 328 326 325 324 324 323 323 322 321 320 320 319 317 316 315 313 310 308 307 306 304 303 301 299 298 297 298 298 297 297 297 298 298 298 298 298 298 298 298 298 298 298 297 297 297 297 298 298 299 298 298 298 299 298 298 298 298 297 297 297 297 297 297 298 298 298 299
337 337 338 337 336 335 334 333 333 333 331 329 327 327 328 329 329 328 327 326 325 324 323 323 322 322 321 321 320 318 317 316 314 312 309 308 307 305 303 301 300 298 297 297 297 297 297 297 297 297 298 298 298 298 298 298 298 298 298 298 297 297 297 298 298 299 299 299 299 299 298 298 298 299 299 298 297 297 297 297 298 298 298 298 299
338 336 337 336 335 333 333 333 333 332 331 329 327 327 328 328 328 328 327 325 325 324 323 322 322 322 322 321 320 318 317 316 314 311 309 308 307 304 301 301 299 297 297 297 297 296 297 297 297 297 297 298 298 298 298 298 298 298 298 298 297 297 297 298 299 299 299 299 299 299 299 298 298 299 299 298 297 298 298 298 298 298 298 298 299
337 336 336 336 334 333 333 333 332 331 331 329 327 327 327 327 327 327 326 326 325 324 323 323 322 321 321 320 319 318 317 316 314 311 309 308 306 303 301 300 299 297 296 296 296 296 296 296 296 297 297 297 298 298 298 298 298 298 298 298 297 297 298 299 299 299 299 300 299 299 299 299 298 299 299 298 298 298 298 298 299 299 299 299 299
336 335 336 335 333 332 333 332 331 331 330 328 327 327 326 326 327 327 326 326 325 324 324 323 322 321 320 319 318 316 316 315 313 310 309 308 306 303 301 300 299 297 296 296 296 296 296 296 296 296 297 297 298 298 298 298 298 298 298 298 297 297 297 299 299 299 299 299 299 299 299 299 298 299 298 298 298 298 299 299 299 299 299 299 299
335 335 336 335 333 331 332 332 331 330 328 327 327 327 326 325 326 326 326 325 324 324 323 322 321 320 319 318 316 315 315 314 312 310 308 307 305 303 302 300 299 297 296 296 296 296 296 297 297 296 297 297 297 298 298 298 298 298 298 297 297 296 297 298 299 299 299 299 299 299 299 299 298 298 298 298 298 299 299 299 299 299 299 299 299
335 335 335 334 332 331 330 329 329 328 327 326 326 326 325 325 326 326 325 325 324 323 322 321 320 319 318 317 315 314 314 313 311 309 308 306 305 303 301 300 299 298 297 296 296 297 297 297 296 296 297 297 298 298 298 298 298 298 297 297 296 296 297 298 299 300 299 299 299 299 299 299 298 298 298 298 298 299 299 299 299 299 299 299 299
334 334 333 332 332 330 330 329 328 327 326 324 324 325 325 325 325 325 325 324 323 322 321 320 319 318 317 316 315 314 314 312 310 309 307 306 305 304 302 302 302 301 299 298 297 297 297 297 296 296 297 297 298 298 298 298 298 297 297 296 296 296 297 298 299 299 299 299 299 299 298 298 298 299 299 299 299 299 299 299 299 299 299 299 299
333 333 333 332 331 330 330 330 329 327 326 324 324 325 325 325 325 324 324 324 323 322 321 319 319 318 318 317 315 315 314 311 309 308 307 306 305 304 303 303 304 302 301 300 299 298 297 297 297 296 296 297 297 297 297 297 297 297 297 296 296 296 297 298 298 299 299 299 299 299 298 298 299 299 299 299 299 299 299 299 299 299 299 299 299
333 333 332 332 331 330 329 328 327 326 325 325 325 326 325 325 324 323 323 323 323 322 321 320 320 320 318 317 316 316 314 311 308 307 306 306 305 305 305 305 304 302 301 300 299 299 298 297 296 296 296 296 297 297 297 297 297 297 297 296 296 296 297 297 297 299 299 299 298 299 298 298 299 299 299 299 299 299 300 299 298 299 299 298 299
333 332 331 330 328 327 327 326 326 325 325 325 326 326 326 325 324 324 324 323 323 322 322 321 321 320 318 316 316 316 313 310 307 307 306 305 304 305 305 304 303 301 301 300 299 298 298 297 295 295 296 296 296 296 296 297 297 297 296 296 296 296 297 297 297 298 299 298 298 298 298 298 299 300 299 299 298 299 299 298 298 298 299 298 298
332 331 329 328 327 325 324 324 324 325 325 325 325 325 325 325 324 324 324 323 322 322 321 320 321 321 318 316 315 313 311 309 307 306 306 304 303 303 304 303 302 301 301 300 298 297 296 295 295 295 295 295 295 296 296 297 297 297 296 296 296 297 298 298 297 298 298 298 297 297 298 299 300 300 299 298 298 298 299 298 298 298 298 298 298
331 330 329 328 326 325 324 324 324 324 324 324 324 324 324 324 324 324 324 324 324 323 322 322 322 322 319 316 314 312 309 308 307 306 306 304 302 302 303 302 302 302 301 300 298 297 296 295 294 294 295 295 295 295 296 297 297 296 296 296 296 298 298 298 298 298 298 299 298 298 297 298 299 299 298 297 297 298 298 298 298 298 298 298 298
330 329 329 328 327 325 324 323 323 324 323 323 323 323 323 324 324 324 324 324 324 324 324 323 321 319 317 315 314 312 311 309 308 307 305 302 302 302 303 302 302 303 302 301 299 299 299 298 296 295 294 294 295 295 296 296 297 296 295 296 297 298 299 299 299 299 299 299 299 298 298 298 298 298 298 298 298 298 298 298 298 298 298 298 298
329 328 328 327 326 325 324 324 324 323 323 323 323 323 323 323 323 323 323 323 322 321 320 319 317 316 314 313 312 312 311 310 309 307 304 301 301 302 302 302 303 303 303 301 300 300 301 301 300 299 297 295 295 295 295 296 296 296 295 297 298 298 299 299 299 299 299 299 299 299 298 298 298 299 299 299 298 298 298 298 298 298 298 298 298
329 327 326 326 326 325 324 324 324 323 324 324 324 323 322 321 321 321 321 320 319 318 317 315 314 313 312 311 311 310 310 309 308 306 303 300 300 300 300 301 303 303 303 302 301 301 302 302 302 302 301 298 295 295 295 296 296 295 296 298 299 298 299 299 299 299 299 299 299 299 299 299 299 299 299 299 299 298 299 299 298 298 298 298 298
327 326 325 325 325 325 324 324 323 324 324 324 323 322 322 321 321 320 319 317 317 316 315 314 313 312 312 311 310 309 309 308 307 305 302 299 298 299 300 302 303 303 303 302 302 302 302 302 302 303 302 300 296 294 295 295 296 296 298 299 300 299 299 299 299 299 299 299 299 299 299 299 299 299 299 299 299 299 299 299 298 298 298 298 298
325 324 324 324 324 324 323 323 322 323 324 323 322 322 321 321 320 319 318 316 315 314 313 313 312 311 311 310 309 309 309 308 306 305 303 300 298 297 299 302 302 302 302 302 302 302 302 302 302 303 302 300 296 294 294 296 298 299 300 300 300 300 299 299 299 299 299 299 300 300 299 299 299 299 299 299 299 299 299 299 298 298 298 298 298
325 324 324 323 323 323 323 322 321 322 322 323 322 322 321 320 318 317 317 317 315 314 313 313 312 311 310 310 309 309 308 307 306 305 305 303 299 297 298 301 302 302 302 302 302 302 302 302 302 302 301 299 295 294 296 298 300 301 301 300 300 299 299 299 299 299 299 299 300 300 300 299 299 299 299 299 299 299 299 299 298 298 298 298 298
325 324 324 323 323 323 323 322 321 321 321 321 322 321 319 318 317 317 317 317 316 315 314 313 312 311 310 310 310 309 307 307 306 305 305 304 302 298 298 300 301 301 301 301 302 302 302 301 301 301 301 298 295 295 298 300 301 301 300 300 300 299 299 299 299 299 300 300 300 300 300 299 299 299 299 299 299 299 299 299 298 298 298 298 298
325 324 324 323 322 322 322 322 322 321 321 320 320 319 318 317 317 317 316 316 315 315 314 313 312 311 310 310 309 308 307 306 306 305 305 304 302 299 298 298 300 301 301 301 301 301 301 301 301 300 300 297 294 296 300 301 301 300 300 300 299 299 299 299 299 299 300 300 301 300 300 299 299 299 299 299 299 299 299 299 298 298 298 297 298
325 324 323 323 322 322 322 322 322 321 320 319 319 318 318 318 317 317 316 315 314 314 314 313 313 312 311 310 309 308 307 306 306 305 305 304 302 300 299 298 298 299 300 301 301 301 301 301 300 299 299 296 294 297 300 301 300 300 300 299 299 299 299 299 299 300 300 301 301 300 300 299 299 299 299 299 299 299 298 298 298 298 298 298 298
324 324 323 322 322 321 321 321 321 320 319 319 318 318 318 317 317 316 315 315 314 314 313 313 313 312 311 310 309 308 307 306 305 305 305 304 302 301 300 299 298 298 298 299 300 300 300 300 299 298 297 295 295 298 300 300 300 300 300 300 300 300 299 300 300 300 300 301 301 300 300 300 300 299 299 299 299 298 298 298 298 298 298 298 298
323 322 322 322 321 321 320 320 320 320 319 319 318 318 317 317 316 315 314 314 313 313 312 312 312 311 310 310 309 308 307 306 305 305 305 304 303 302 302 302 300 298 297 298 299 299 299 298 297 296 295 295 297 299 300 300 300 300 300 300 300 300 300 300 300 300 301 301 300 300 300 300 300 299 299 299 298 298 298 298 298 298 298 298 297
322 321 321 321 320 320 320 319 319 319 319 318 317 317 317 316 315 314 313 313 313 312 312 311 311 311 310 309 309 308 307 306 306 306 305 305 304 303 302 302 301 300 297 296 296 296 296 296 295 294 295 296 298 300 301 301 301 301 300 300 300 300 300 300 300 301 300 300 300 300 300 300 299 299 299 299 298 298 298 298 298 298 298 297 297
321 321 320 320 320 320 319 319 319 318 318 317 317 316 316 315 314 313 313 313 312 312 311 311 310 310 309 308 308 307 307 306 306 306 305 305 304 304 303 303 302 300 299 297 296 295 295 295 295 295 295 296 298 300 301 301 301 300 300 300 301 301 301 301 301 301 300 300 301 300 300 300 299 299 299 298 298 298 298 298 298 298 297 297 296
321 321 320 320 319 319 318 318 318 318 317 317 316 315 315 314 313 313 313 312 312 311 311 310 309 309 308 308 307 307 307 306 305 305 305 304 304 304 304 303 302 302 301 300 299 297 296 296 296 296 295 296 298 300 300 301 301 300 300 300 301 301 301 301 301 301 301 301 300 300 300 299 299 299 299 298 298 298 298 298 298 297 297 296 295
320 320 320 320 320 319 318 317 317 317 317 316 315 315 314 314 313 313 312 311 311 311 310 310 309 308 307 307 306 306 306 305 305 304 304 304 304 304 304 303 302 302 301 301 300 299 297 296 296 296 295 296 298 299 300 300 301 301 300 301 301 301 301 301 301 301 301 301 300 300 299 299 299 299 298 298 298 298 298 298 297 297 296 295 293
319 319 319 319 319 318 317 317 317 316 316 315 314 314 314 314 313 312 312 311 311 310 310 309 308 307 306 306 306 305 305 304 303 303 303 303 303 304 303 303 302 302 301 300 299 297 296 296 297 297 297 297 298 299 299 301 301 301 301 301 301 301 301 301 301 301 301 300 300 299 299 299 299 299 298 298 298 298 298 297 297 296 295 294 292
318 318 318 318 317 317 317 316 316 316 315 314 314 314 314 313 313 312 311 311 311 310 309 308 306 305 305 306 305 304 303 302 301 301 302 302 302 303 302 302 302 302 301 299 296 295 295 297 299 300 299 298 299 300 300 301 301 302 302 301 301 301 301 301 300 301 300 300 299 299 299 299 299 298 298 298 298 297 297 297 296 295 294 292 290
317 317 317 317 316 316 316 316 315 315 314 314 314 313 313 313 312 311 311 311 310 308 307 305 304 304 305 305 303 302 301 300 299 299 299 300 301 301 302 302 302 301 299 296 294 293 296 299 300 301 300 300 300 301 301 301 301 302 301 301 301 301 301 301 301 301 300 300 299 299 299 299 298 298 298 298 297 297 297 296 295 294 292 290 288
316 316 316 316 316 316 315 315 314 314 314 313 313 313 313 312 312 311 310 310 309 307 305 304 303 303 304 303 302 301 301 301 300 298 297 297 298 298 299 300 299 298 296 294 293 294 297 300 300 301 301 301 301 301 301 301 301 301 301 301 301 301 301 301 301 300 300 299 299 299 299 299 298 298 298 297 297 297 296 295 294 292 290 288 286
315 315 315 315 315 314 314 313 313 313 313 313 313 313 312 312 311 310 310 309 307 305 304 303 302 302 302 302 302 302 301 301 301 299 297 295 295 295 295 295 295 295 294 293 294 297 300 300 300 301 301 301 301 301 301 301 301 301 301 301 301 301 300 300 300 299 299 299 299 299 299 298 298 297 297 297 297 296 295 294 292 290 288 286 285
315 314 314 315 315 314 313 312 313 313 312 312 313 312 312 311 310 309 309 307 306 304 303 302 302 302 301 301 302 302 301 300 301 301 299 296 295 295 294 294 295 295 294 294 296 299 301 300 300 301 301 301 301 301 301 301 301 301 301 300 300 300 300 299 299 299 299 299 299 299 299 298 297 297 297 297 296 295 294 292 290 288 286 285 285
314 314 314 314 314 313 313 312 312 312 312 313 312 312 311 310 309 308 308 306 305 304 303 302 302 302 301 301 302 303 301 300 301 302 300 297 297 296 296 295 295 294 294 295 298 300 300 300 301 301 301 301 301 301 301 301 301 300 300 300 300 299 299 299 299 299 299 299 299 299 298 297 297 297 297 296 295 294 292 290 288 286 285 284 284
313 313 313 313 313 312 312 312 312 312 312 312 311 310 309 309 309 308 307 306 305 305 303 302 302 302 301 301 302 302 301 301 302 301 299 298 298 298 297 297 296 295 294 296 299 300 300 300 301 301 301 301 301 301 301 301 301 301 300 300 299 299 299 299 299 300 300 299 299 298 297 297 297 297 296 295 293 291 290 288 286 285 284 284 284
Wind_Speed
35 35 35 36 36 36 34 32 32 33 31 29 27 25 23 22 22 22 23 23 21 19 18 20 22 23 22 22 20 19 18 15 12 13 13 11 12 13 12 11 11 11 12 13 12 12 13 14 14 13 13 12 12 11 12 14 17 17 17 15 13 10 9 10 13 15 11 6 6 4 2 2 1 2 2 2 6 9 12 14 15 16 18 20 23
36 36 36 36 36 35 33 31 32 32 30 29 27 24 23 22 22 22 23 22 20 19 19 20 21 20 17 17 18 17 16 15 13 12 11 11 14 14 12 12 12 12 13 13 13 14 14 14 14 14 13 12 12 12 12 13 14 16 15 14 13 11 10 11 13 15 13 9 6 4 4 3 2 2 2 2 5 9 11 13 14 15 17 20 22
36 36 36 35 34 34 33 32 31 30 30 29 27 24 23 22 22 23 23 21 20 19 20 20 19 17 15 15 15 16 16 15 13 11 11 13 15 14 13 13 12 12 13 13 14 15 15 15 14 14 13 12 12 12 12 13 13 14 14 13 12 13 12 10 11 13 13 11 7 5 5 4 3 3 3 3 5 7 9 11 13 14 17 19 21
37 37 35 34 34 33 32 32 31 30 30 29 26 24 23 23 23 23 22 20 19 19 19 18 16 15 14 15 15 16 16 14 12 11 12 14 16 15 13 13 12 13 14 14 15 16 15 15 14 13 12 12 12 12 13 14 14 14 14 14 14 14 14 12 11 12 12 11 9 7 5 4 4 4 4 4 4 5 7 9 11 13 16 18 20
37 37 35 35 35 32 31 31 30 30 30 29 26 25 24 24 23 22 21 20 19 20 19 17 15 14 14 15 15 14 13 12 11 12 13 16 16 14 14 14 14 14 15 15 16 16 16 15 13 12 12 11 11 12 13 15 15 15 15 15 16 15 14 13 12 11 10 9 8 7 5 4 5 6 6 5 4 4 5 7 10 13 15 17 19
37 36 36 36 35 33 30 30 30 30 30 28 26 25 26 25 23 22 20 19 20 20 18 17 16 15 15 15 13 13 12 12 11 12 15 17 16 15 14 15 15 15 16 17 17 17 16 15 13 12 11 10 10 11 13 15 16 16 16 16 16 15 14 13 11 10 9 9 8 6 5 5 5 6 6 6 4 4 4 5 7 11 14 16 19
36 36 36 35 35 34 31 28 28 29 29 28 26 26 26 25 24 22 20 19 20 20 18 18 17 15 15 14 13 13 13 11 11 13 16 17 17 16 15 15 15 16 17 17 18 18 16 15 13 12 11 10 10 11 13 15 16 16 16 15 15 14 13 12 11 10 8 8 8 6 5 5 6 7 7 6 5 5 6 6 7 10 13 16 19
35 36 36 35 35 34 31 28 27 28 28 27 26 26 27 26 25 23 21 20 20 20 20 20 18 15 15 15 14 13 12 11 11 13 17 18 17 16 15 15 16 17 18 18 18 17 16 15 13 12 11 11 11 12 14 15 15 15 14 14 14 14 13 12 11 10 8 7 6 6 6 6 7 8 6 5 4 7 8 9 10 11 12 15 19
35 36 36 36 35 33 31 30 28 26 26 26 27 28 28 27 25 23 21 20 20 20 21 20 18 16 16 15 13 12 12 11 11 14 17 19 18 16 15 15 16 17 18 19 18 17 16 14 13 12 12 13 13 14 16 16 14 12 11 12 13 13 12 12 10 9 7 7 7 7 6 7 7 7 7 6 7 8 8 8 9 9 10 13 17
35 36 36 36 36 34 31 30 28 27 27 26 27 29 29 28 26 23 21 20 20 21 21 20 18 16 15 15 13 12 12 11 11 14 18 19 18 16 15 15 15 16 18 19 18 17 16 15 14 13 13 14 15 15 16 16 14 10 9 10 11 11 11 11 10 8 7 7 8 7 7 9 10 10 10 10 9 8 6 6 8 9 10 12 16
34 34 34 36 38 36 31 29 29 29 29 28 28 29 29 28 26 24 22 21 21 23 22 20 19 17 16 15 13 12 11 11 11 15 18 18 17 15 15 15 15 16 18 19 19 19 18 17 15 15 14 15 15 16 16 15 13 11 10 10 10 9 8 8 9 8 7 7 8 8 8 11 13 12 12 11 10 9 9 9 10 11 12 14 16
34 33 34 36 37 33 29 30 31 31 30 29 28 28 29 29 27 25 24 23 24 25 23 21 20 18 17 15 13 12 11 10 11 15 18 18 16 15 15 15 16 16 17 18 19 19 19 18 17 16 16 16 16 17 16 15 13 12 12 11 11 10 8 6 6 7 7 7 9 9 10 12 13 13 12 12 12 11 10 11 11 11 12 13 14
34 34 36 38 36 31 31 32 31 30 29 28 26 25 28 29 28 26 25 25 27 27 24 23 21 19 17 15 13 12 12 11 11 14 18 18 16 15 15 15 15 16 18 19 19 20 19 19 19 19 18 17 17 17 17 16 15 14 13 13 12 11 9 7 6 7 7 7 8 10 11 13 13 14 13 13 13 12 11 11 12 11 12 12 12
35 35 37 37 34 32 33 32 30 29 28 26 24 24 27 30 28 27 27 28 29 28 26 24 22 20 18 15 13 13 12 12 12 15 18 18 16 15 15 15 15 16 18 19 19 19 19 19 20 20 19 19 19 18 18 17 16 15 14 14 13 11 9 7 7 7 8 8 8 9 11 12 13 13 13 12 12 12 12 12 11 11 11 12 12
37 37 36 33 31 31 32 31 30 29 28 26 24 24 26 29 30 29 29 31 30 29 28 26 23 21 18 16 15 14 13 13 14 16 18 18 16 16 16 15 15 16 19 19 19 19 19 19 19 20 21 21 20 19 18 17 16 16 15 14 13 11 9 8 8 7 7 8 8 8 7 8 9 11 12 11 10 11 12 11 11 11 11 12 12
36 36 35 33 31 31 32 31 30 30 27 26 24 23 25 28 31 30 31 32 31 30 29 26 24 22 20 18 17 16 14 14 15 17 18 18 17 16 16 16 16 18 21 21 20 20 20 20 20 21 21 22 21 20 18 17 16 15 15 14 12 11 9 8 7 7 6 7 7 6 5 5 6 9 11 10 8 9 11 10 9 10 11 12 13
38 35 35 33 31 31 32 31 30 30 28 26 23 22 23 27 31 32 33 34 33 32 30 27 24 22 20 20 19 17 15 14 15 17 19 18 18 18 17 17 18 21 23 22 22 23 22 22 22 21 22 21 20 19 18 17 16 15 14 13 12 10 9 7 7 6 6 5 5 4 3 4 5 7 10 10 7 8 10 9 9 9 10 12 13
38 34 33 32 30 31 32 31 30 30 28 25 23 22 23 26 30 34 34 34 34 32 29 27 25 23 22 20 19 17 15 14 16 18 19 19 18 18 18 18 20 23 24 24 24 24 23 23 22 22 22 21 20 19 18 16 15 14 13 12 11 10 9 8 7 7 6 4 3 2 2 4 4 6 9 9 7 7 8 8 8 8 10 12 14
32 29 31 32 30 30 31 30 29 28 27 24 22 22 23 26 30 34 35 34 34 32 30 28 27 25 24 21 20 18 16 15 17 19 20 19 18 18 18 19 21 24 26 26 26 26 25 24 23 23 22 21 20 19 18 16 15 14 13 12 10 9 8 8 8 7 6 4 2 1 2 4 4 6 9 8 6 7 7 7 7 10 12 14 15
28 27 31 31 28 28 30 29 27 27 26 24 21 21 23 26 30 34 35 35 35 33 31 30 28 27 26 23 22 20 17 16 18 21 21 20 19 19 20 20 22 25 27 27 27 27 26 25 24 24 23 22 21 19 18 17 15 14 12 12 10 9 9 9 8 7 6 4 2 1 1 4 5 6 8 6 6 7 7 7 9 12 15 16 13
27 27 30 30 27 27 28 26 24 24 23 22 21 22 23 26 31 34 35 35 35 34 33 32 30 28 26 24 23 20 17 16 19 22 22 21 21 21 21 20 21 25 28 27 26 26 25 24 24 24 23 22 21 20 18 17 15 13 12 11 9 8 8 8 8 7 5 3 1 1 1 3 5 6 6 3 6 5 6 8 9 12 16 14 9
26 26 28 28 26 25 25 23 22 22 21 20 22 23 24 27 31 33 35 35 35 35 34 32 30 28 26 24 23 20 17 17 19 23 23 22 23 23 21 19 20 23 26 26 25 24 23 22 23 23 22 22 22 20 17 15 13 12 11 9 8 8 7 8 9 7 6 4 2 2 1 3 4 5 3 3 3 2 3 6 7 10 13 10 5
24 24 26 25 24 23 23 22 22 21 19 18 21 24 27 30 31 33 35 35 35 35 34 32 31 29 27 25 22 19 18 18 20 24 24 24 25 24 20 19 20 22 22 22 22 22 21 21 21 21 21 21 21 19 16 14 14 13 11 9 9 8 8 9 9 9 7 5 3 3 3 4 4 3 2 3 4 2 1 4 5 6 8 6 4
21 22 24 24 23 23 22 21 20 19 18 17 20 25 29 32 33 34 35 35 35 35 34 33 32 30 28 26 23 20 19 20 23 25 25 26 27 25 22 21 22 22 20 19 19 19 18 19 21 21 21 21 20 18 16 15 15 13 11 10 10 10 9 9 10 9 7 5 4 4 4 4 3 2 1 4 6 4 3 5 5 4 6 6 5
21 23 23 22 21 20 19 19 19 19 18 19 22 26 30 34 35 36 36 35 35 34 34 34 32 30 28 26 23 21 21 22 26 28 28 28 28 27 25 25 24 22 20 19 18 16 16 18 20 21 20 20 20 18 17 17 16 14 12 11 11 10 9 9 9 9 7 6 6 6 5 4 4 3 4 5 6 5 5 6 5 3 5 6 5
23 23 20 17 15 16 18 20 20 20 20 22 24 27 30 33 35 36 36 36 35 34 35 34 31 29 28 25 21 20 22 25 28 30 30 29 29 28 27 26 24 21 19 18 16 15 15 18 21 22 20 20 19 19 19 18 16 15 13 12 11 10 9 8 9 10 7 6 7 7 5 5 5 4 5 7 7 6 6 6 4 3 5 7 8
22 20 16 14 13 15 17 20 21 21 23 25 27 29 31 32 34 36 36 36 35 35 35 31 27 27 27 24 20 19 22 26 30 31 31 30 29 29 28 26 24 21 18 16 16 16 17 19 21 21 20 20 20 20 19 19 17 15 14 13 11 11 9 8 8 9 7 4 5 5 5 6 6 5 5 6 5 5 4 6 6 5 7 10 11
18 16 14 13 13 13 16 19 22 23 24 26 29 31 31 32 33 35 34 32 31 30 29 27 25 26 26 22 18 18 21 27 30 31 31 31 31 31 29 27 25 23 20 17 17 17 18 20 21 21 21 21 21 21 20 19 18 16 15 14 13 12 10 8 7 7 6 4 4 4 4 6 7 6 5 5 3 1 3 6 7 8 10 12 14
15 14 13 13 13 14 16 19 22 24 25 27 28 29 29 30 31 31 30 28 27 25 24 23 23 23 22 19 16 16 18 22 27 29 30 31 32 32 30 28 26 23 20 18 19 19 19 20 21 22 22 22 22 21 21 19 18 17 15 14 15 14 11 9 7 7 6 5 5 5 4 5 6 5 4 5 3 3 4 6 7 9 12 14 16
14 14 13 13 13 14 16 20 23 24 25 26 27 28 30 30 28 27 27 28 27 25 23 21 19 17 17 15 14 13 12 14 19 26 30 31 32 32 30 27 25 23 21 19 20 20 19 20 20 20 20 21 21 21 21 20 19 18 16 14 14 13 11 10 9 9 9 8 6 6 5 4 4 4 5 5 4 3 5 7 9 11 13 15 17
14 13 13 13 13 13 15 20 23 24 24 24 26 28 30 29 27 27 28 28 25 23 21 20 17 15 14 13 12 12 12 11 14 22 29 31 32 32 31 28 25 23 22 21 20 20 20 21 20 18 17 18 20 20 20 20 19 17 16 14 13 12 11 10 10 10 11 10 8 7 6 5 4 5 6 6 6 6 8 10 11 12 14 17 19
13 12 13 14 14 13 15 20 24 24 24 25 26 27 28 28 28 30 29 26 22 21 20 19 17 16 15 14 13 14 14 12 11 17 24 29 31 31 31 29 25 23 23 23 22 22 21 21 20 18 16 17 18 19 19 19 18 17 16 15 14 12 10 9 8 9 11 10 9 9 7 5 6 7 6 6 7 9 11 12 13 14 16 19 20
10 10 10 12 13 14 17 22 26 26 24 25 26 27 27 30 32 31 27 24 23 22 21 18 17 16 16 16 15 14 12 9 8 10 16 23 28 30 31 29 26 23 23 24 24 23 21 21 21 19 17 17 18 18 19 18 17 16 15 15 14 13 11 9 8 9 10 10 9 9 7 5 6 6 6 7 10 12 14 15 15 17 19 20 20
9 8 6 7 10 14 19 24 27 27 26 26 26 28 30 32 31 27 25 24 24 23 21 20 19 18 18 17 15 12 8 7 6 6 8 13 21 28 32 30 26 24 24 24 25 24 23 23 23 22 19 17 17 19 19 18 17 16 15 14 13 12 12 11 11 10 11 11 11 9 6 4 6 7 7 9 12 14 15 16 17 19 20 21 21
12 10 7 6 7 11 17 22 26 28 29 29 29 31 31 30 27 24 24 25 25 23 22 21 21 21 20 19 15 12 10 9 8 7 7 8 13 24 31 32 30 28 27 27 26 26 26 26 25 24 22 19 18 20 20 18 17 16 15 14 13 12 13 13 13 12 11 13 13 9 6 5 7 8 9 12 14 15 17 18 20 21 21 21 22
13 13 11 9 8 11 15 19 22 26 29 30 31 30 28 25 23 23 23 23 24 23 22 22 22 22 21 19 17 14 13 13 12 11 11 11 12 19 28 33 35 34 32 31 30 29 29 28 27 25 23 21 20 22 21 18 17 17 15 14 14 13 13 14 15 14 13 14 14 10 7 7 9 11 13 15 16 18 19 20 21 21 21 22 23
15 14 12 10 10 11 13 17 20 24 27 29 28 27 25 24 24 24 23 23 23 23 23 24 24 23 22 21 19 17 17 17 16 15 14 14 15 18 22 27 33 36 36 34 33 31 30 29 27 25 23 21 22 23 22 18 17 17 16 15 14 14 15 16 15 15 15 16 14 11 9 10 12 14 15 16 17 18 20 20 20 20 20 22 23
16 14 12 10 11 12 14 16 19 22 24 25 25 25 26 26 26 24 23 22 22 22 23 25 25 24 22 21 21 21 21 20 20 18 18 18 18 19 18 19 24 32 36 36 35 33 31 30 28 26 23 21 23 24 21 18 18 18 18 16 15 16 16 16 14 14 16 16 15 12 11 13 15 16 15 15 17 19 19 18 18 19 20 22 23
18 16 14 13 13 14 15 17 18 19 21 23 24 25 26 26 25 23 21 21 21 21 22 23 23 22 22 21 21 23 23 23 21 21 21 21 20 19 18 16 17 23 30 34 34 33 32 31 30 27 24 22 24 23 20 17 18 20 20 19 18 17 16 16 15 15 16 16 15 13 14 17 17 16 15 17 19 19 18 17 18 19 20 22 23
20 19 17 16 16 18 18 19 19 19 20 21 23 25 25 25 23 21 20 20 21 20 19 19 20 21 21 20 21 23 24 24 22 22 22 22 21 19 18 17 16 18 21 25 28 29 29 28 27 25 22 22 24 23 17 15 17 20 21 20 18 16 16 17 16 16 15 15 14 15 17 18 17 16 17 19 19 18 17 18 19 20 21 23 24
20 20 19 18 19 20 21 21 21 21 22 22 23 23 24 23 21 19 20 20 19 19 18 18 18 19 19 19 20 21 22 22 22 22 22 22 21 19 18 17 16 15 16 18 20 22 23 22 21 21 20 21 24 22 16 14 17 20 21 20 18 16 16 17 16 15 14 14 16 18 19 17 16 17 20 20 18 17 17 19 20 21 22 23 24
19 21 21 20 20 21 21 22 23 24 24 25 24 22 22 21 20 20 20 19 18 18 18 18 18 19 19 18 18 18 18 18 19 20 21 22 21 20 18 17 16 15 14 14 16 18 19 19 18 19 19 21 24 22 16 14 18 22 22 21 18 17 17 18 16 14 15 17 18 18 17 15 16 19 21 20 18 18 19 20 20 22 23 23 24
18 20 21 23 23 22 22 22 23 24 24 25 24 22 21 21 21 21 20 19 18 18 19 19 18 18 17 15 13 13 13 14 16 17 19 20 20 20 18 17 16 15 14 15 15 16 17 18 18 18 18 21 24 21 16 15 18 23 23 21 19 19 19 18 15 14 17 18 17 16 15 16 19 21 21 19 18 19 20 20 21 22 23 24 25
18 20 22 23 23 22 21 22 22 23 23 24 23 23 22 22 22 22 21 20 19 19 20 19 18 17 15 14 13 12 12 13 14 16 18 19 19 19 18 18 17 16 16 16 16 16 16 17 16 15 16 19 21 19 16 15 18 22 23 21 20 20 18 14 14 16 18 17 15 15 16 18 20 21 20 19 19 20 20 21 22 23 24 24 24
17 19 20 20 20 20 20 20 21 22 22 23 23 23 22 23 23 22 22 21 20 19 19 19 17 16 15 13 13 13 13 13 14 15 17 18 19 19 19 19 18 17 17 16 16 15 15 15 12 11 16 20 20 18 18 18 19 21 21 20 19 17 14 14 16 18 17 16 16 17 18 19 21 20 20 20 20 20 21 22 23 23 24 24 24
13 14 16 17 18 18 18 19 20 21 21 21 21 21 21 21 21 20 21 22 20 18 17 16 16 16 15 13 12 12 13 13 14 15 15 16 17 19 20 20 20 18 17 16 16 15 16 15 11 10 15 19 19 17 17 19 20 20 19 18 17 15 15 16 18 18 18 18 18 18 18 20 21 21 20 21 20 20 21 23 23 23 24 23 22
11 12 14 15 16 17 18 18 19 19 19 20 20 20 20 20 19 18 19 19 18 17 16 16 16 16 15 15 14 13 13 13 14 14 14 15 16 17 18 18 18 17 16 16 16 16 17 15 12 10 12 14 15 16 17 19 19 18 17 16 16 15 16 18 18 18 18 18 18 17 19 21 22 22 21 21 20 21 22 23 23 23 23 22 20
10 11 12 14 15 15 16 17 18 19 19 19 19 19 19 19 18 18 17 17 16 16 17 16 16 16 16 16 15 14 14 13 13 13 15 15 14 15 16 15 15 17 17 17 17 18 17 15 14 13 13 13 15 16 18 19 19 18 17 16 16 17 18 18 18 17 17 17 17 18 20 22 23 22 20 20 20 21 22 22 22 23 21 19 18
9 9 11 12 13 14 16 17 18 19 19 18 17 17 17 17 17 17 17 16 16 17 17 16 16 17 18 17 15 15 17 16 13 13 15 15 13 14 15 15 16 18 19 19 19 19 16 16 17 18 17 16 16 17 18 18 18 17 17 17 18 18 18 17 16 16 16 16 17 19 22 23 22 20 19 20 21 21 22 22 22 21 19 17 16
8 9 9 10 11 13 15 17 18 18 18 18 17 16 16 16 17 17 17 18 18 18 18 18 17 17 18 18 17 17 19 17 13 12 13 14 14 13 15 16 17 19 20 21 21 19 18 18 20 20 18 18 17 17 17 16 15 16 17 18 18 17 16 15 16 16 16 16 19 21 23 21 19 19 20 21 21 21 21 21 20 18 16 15 14
8 9 10 9 9 10 12 14 15 16 16 16 15 15 15 16 16 17 17 18 19 19 19 19 19 18 19 19 18 17 18 16 12 10 12 14 14 14 15 16 17 18 20 22 22 19 19 20 20 19 18 17 16 15 14 14 14 16 17 16 16 15 14 15 16 16 17 19 21 22 20 18 18 20 20 20 20 20 19 19 18 16 15 14 13
Wind_Direction
205 206 207 209 212 212 214 216 217 219 222 223 224 226 224 219 215 214 216 218 218 217 218 219 223 220 209 207 215 225 233 235 233 242 256 251 222 208 208 210 213 216 214 211 206 201 199 193 187 186 185 182 178 177 180 184 187 190 192 196 197 190 196 194 162 138 130 147 184 185 112 85 107 140 151 100 86 89 88 80 70 61 50 42 36
205 206 206 209 212 213 215 218 218 219 221 222 223 223 219 214 212 213 213 216 218 221 222 218 221 223 210 206 217 225 231 236 234 235 243 234 213 204 206 210 213 213 210 207 202 195 191 190 188 186 187 186 180 175 176 181 185 188 191 195 191 175 175 180 161 143 138 145 160 145 111 101 90 98 86 66 92 97 90 80 71 63 52 45 37
206 205 206 210 214 213 214 217 217 218 219 220 220 218 215 211 210 212 213 216 218 220 221 217 217 220 216 215 221 224 227 228 225 226 228 221 211 205 206 209 211 211 209 205 199 193 190 189 190 190 189 186 180 175 174 176 181 184 184 186 182 167 161 165 158 148 144 141 139 126 112 104 84 80 59 58 105 109 92 80 72 64 53 46 37
204 204 206 212 214 211 212 214 216 217 218 218 216 212 210 208 207 209 213 216 216 215 215 215 216 216 216 220 222 224 225 222 220 224 221 212 209 206 205 205 206 208 209 205 197 192 191 191 193 193 191 188 181 175 174 174 177 181 180 177 175 164 156 155 152 149 146 141 135 120 109 100 80 75 65 65 107 120 104 86 73 65 54 47 39
202 204 209 213 211 208 210 212 214 216 217 216 212 207 206 206 206 208 212 212 211 211 210 213 218 220 221 223 222 224 227 224 224 224 213 204 204 205 204 203 203 205 207 204 197 194 193 195 197 195 192 191 184 176 175 175 175 177 175 171 169 163 159 157 151 147 147 141 130 114 105 99 86 85 80 77 101 119 112 95 77 67 56 49 44
201 204 210 212 208 206 209 211 211 214 216 213 208 204 205 206 207 209 211 208 207 209 211 216 220 223 225 223 220 226 229 224 224 219 206 199 199 200 203 203 204 205 204 201 198 196 197 198 199 197 193 192 189 180 175 174 174 174 171 168 166 164 162 158 149 147 145 133 124 119 113 104 95 92 82 74 89 101 99 100 87 69 56 50 46
201 205 210 210 206 205 207 210 212 213 214 210 204 204 206 206 207 209 207 205 207 210 212 215 218 218 220 218 216 224 226 218 218 213 203 199 198 200 202 204 205 204 202 200 199 197 199 201 199 194 192 193 193 184 174 171 170 169 168 167 165 162 159 153 147 147 141 129 126 122 111 98 84 76 72 72 84 87 83 87 82 64 51 47 46
203 205 209 208 205 204 205 210 214 214 212 207 203 204 205 204 206 207 204 201 206 211 212 212 213 210 213 215 214 218 220 218 217 211 203 201 201 203 205 206 207 205 201 199 198 196 196 197 195 190 190 194 193 183 174 172 172 170 171 170 165 160 155 149 146 144 137 130 124 113 107 100 86 80 86 91 80 68 64 66 67 60 47 42 44
204 206 207 207 205 204 206 209 213 216 214 207 203 205 204 203 204 206 204 200 203 210 210 209 208 207 209 211 211 215 221 227 227 216 208 205 204 205 206 207 208 206 201 196 193 192 191 190 187 185 188 191 188 181 175 175 178 180 180 172 163 159 153 148 147 144 139 132 121 117 119 109 95 89 85 75 62 57 59 63 64 60 50 46 46
205 205 205 206 205 203 205 209 213 216 215 208 204 205 204 203 204 204 202 201 204 207 205 203 205 209 210 208 210 217 225 235 234 221 213 210 208 206 205 207 208 206 202 196 190 188 188 186 182 181 184 185 183 181 179 178 181 185 179 163 155 156 155 152 149 144 143 136 123 121 113 95 84 75 67 62 59 56 55 58 56 54 56 54 51
204 203 205 207 204 199 202 209 213 215 213 208 207 208 206 204 203 201 199 201 204 202 201 202 204 209 212 211 213 220 228 237 233 220 213 210 210 208 208 209 209 207 203 197 192 190 187 183 181 180 180 179 177 178 180 180 179 174 162 150 147 151 156 157 151 145 147 137 120 112 100 87 78 71 66 63 59 54 51 54 52 47 47 46 44
203 203 206 205 199 197 206 212 210 210 210 209 212 213 207 202 201 200 199 201 201 199 200 204 205 207 209 212 216 222 230 238 234 221 211 207 208 211 214 215 213 208 203 198 195 193 188 183 182 181 179 177 174 173 173 172 168 162 155 148 146 152 156 155 149 145 144 132 115 101 88 80 74 68 65 61 59 58 57 57 54 48 45 41 39
202 203 202 200 199 204 211 210 207 207 209 211 216 216 205 200 201 201 200 201 200 199 201 204 206 207 209 211 217 224 231 237 235 223 212 207 208 211 216 220 216 208 202 197 195 193 190 187 185 181 177 174 170 167 167 165 162 159 156 153 153 160 160 153 145 140 134 123 107 88 75 69 63 58 54 52 54 57 57 55 56 57 54 47 39
202 203 200 197 199 205 207 208 209 209 210 212 215 212 204 200 200 201 201 200 199 200 204 205 205 207 209 213 220 228 233 237 237 227 215 209 209 212 216 219 215 207 200 194 191 193 193 192 188 181 175 171 168 168 167 166 164 161 159 159 160 162 159 152 145 137 126 111 94 79 70 63 58 52 46 44 47 49 47 47 54 62 60 51 41
199 201 201 200 203 207 209 211 210 208 208 210 210 210 206 200 198 199 201 200 200 203 205 205 204 206 209 215 222 227 231 235 236 228 217 211 210 212 216 215 209 202 194 187 189 195 195 192 189 183 177 172 170 171 172 170 168 166 163 162 161 159 155 151 150 143 128 109 92 82 76 67 57 49 41 37 42 44 39 38 49 62 62 54 46
201 202 203 205 208 210 209 209 207 207 208 209 208 207 203 197 196 199 201 200 202 204 204 205 206 207 210 216 222 227 228 231 234 227 217 212 211 212 214 211 203 194 186 184 191 196 194 191 189 185 181 176 174 175 176 175 174 171 168 165 162 160 155 156 159 150 128 109 95 86 80 64 51 43 34 29 37 42 37 40 56 64 56 46 41
198 203 204 204 206 208 208 207 207 206 207 210 209 206 200 197 198 200 201 201 203 204 204 205 206 210 214 217 222 227 227 228 231 225 217 214 213 211 210 204 197 190 186 187 194 194 191 191 190 188 185 182 181 180 180 181 179 177 175 171 165 161 158 161 166 150 126 115 105 94 76 48 37 31 23 21 35 43 40 50 65 58 39 26 21
192 198 203 203 205 207 208 207 206 206 211 217 215 207 203 200 199 201 203 204 205 205 205 205 207 213 219 221 224 228 228 229 228 222 218 217 215 213 210 202 195 191 189 191 193 192 192 191 191 191 190 187 187 187 185 185 185 183 180 175 169 164 159 159 161 149 135 135 128 103 61 32 28 21 12 15 35 47 50 60 58 37 21 11 4
194 199 202 202 204 208 209 209 211 212 217 222 219 211 206 202 200 203 205 207 207 208 208 208 210 213 218 222 226 228 227 228 226 221 218 217 216 215 212 204 197 194 192 192 192 193 194 193 193 194 193 191 192 192 190 189 190 189 185 179 173 168 162 161 162 156 151 155 155 133 40 18 20 11 3 12 46 63 63 57 31 14 4 356 352
199 203 202 201 206 210 210 210 213 216 220 223 222 216 209 202 201 203 206 208 210 210 210 211 213 214 216 220 224 224 225 227 224 219 218 218 217 215 212 209 204 199 196 195 196 197 196 196 197 196 195 195 197 197 195 195 194 191 185 180 176 174 173 173 171 167 163 162 174 195 358 6 9 1 356 17 72 74 58 36 16 8 0 352 351
197 200 201 204 209 211 210 212 216 219 223 224 222 217 209 202 201 203 206 209 210 211 211 212 214 215 217 219 220 221 226 230 224 217 216 217 216 213 213 215 212 205 201 200 202 204 201 200 199 198 198 200 202 203 202 199 194 189 184 182 181 182 183 184 182 178 178 181 212 246 333 2 357 349 350 50 96 77 40 23 13 9 6 1 3
192 197 201 205 209 210 212 216 217 218 222 224 221 215 206 200 202 205 207 209 211 212 213 213 214 217 219 220 220 221 227 229 223 216 215 215 215 215 218 220 216 212 210 208 207 209 209 206 203 203 204 205 205 205 205 198 193 190 186 186 190 190 192 193 192 191 194 199 215 240 278 322 331 337 356 58 92 91 31 19 3 2 10 12 15
192 199 205 207 210 213 214 215 214 216 224 227 219 210 202 199 203 207 208 210 212 213 214 215 215 217 218 219 219 222 227 225 218 215 215 213 214 219 223 220 218 220 222 219 217 215 211 208 206 206 206 204 201 200 198 196 195 193 189 190 196 199 200 200 197 197 201 205 214 232 258 287 309 331 5 1 338 292 335 1 342 349 7 10 358
198 204 206 205 206 209 210 211 214 222 229 223 210 205 202 201 203 207 210 212 214 214 215 216 217 219 221 221 221 225 227 221 213 213 214 212 215 221 222 218 221 226 228 228 229 225 215 208 206 206 204 201 197 194 194 197 199 197 194 195 200 205 205 203 202 203 206 210 220 238 260 268 279 305 319 328 329 310 291 313 310 322 355 1 354
204 203 201 201 204 209 213 216 220 226 227 217 206 204 203 202 204 207 210 214 216 217 218 220 222 226 225 224 227 231 228 218 211 210 212 212 214 218 219 219 224 230 231 229 228 226 218 209 205 204 203 201 199 196 195 199 202 201 199 199 203 208 210 209 211 212 212 218 230 247 266 254 250 282 303 313 319 301 286 298 297 296 329 337 340
201 197 195 201 215 223 222 219 220 222 220 215 210 207 207 207 208 210 212 216 218 221 223 223 225 230 229 228 235 237 227 216 210 209 212 214 214 216 219 222 225 228 228 225 220 217 214 208 205 204 203 203 203 201 199 202 203 203 204 204 204 206 207 209 214 214 214 227 243 256 259 237 232 260 293 308 304 277 285 320 333 312 322 330 334
194 193 197 212 226 227 219 215 215 215 215 213 210 209 209 211 212 212 214 216 218 221 224 225 229 236 237 235 237 235 225 215 211 211 213 214 214 216 220 222 224 223 220 214 208 207 206 203 203 204 204 205 206 205 204 205 204 205 208 207 201 199 200 202 203 202 205 229 262 270 253 231 235 256 294 319 306 264 289 348 3 347 337 340 338
198 201 209 224 231 227 219 216 216 215 213 212 210 209 211 214 216 218 220 221 223 225 230 234 240 245 244 242 240 234 225 218 215 214 214 214 214 215 217 220 222 221 216 207 199 197 199 201 201 203 205 207 208 208 208 207 206 208 210 207 201 201 205 206 199 195 202 231 281 291 261 238 245 263 308 343 347 316 340 352 354 344 338 335 331
204 208 216 226 231 229 223 220 219 218 215 213 212 213 214 217 221 224 226 228 231 236 242 248 254 257 255 252 248 243 237 232 228 223 218 215 215 216 217 220 222 221 218 211 200 194 197 202 203 204 207 209 210 210 210 208 207 209 210 207 204 205 209 214 214 210 215 238 276 292 279 255 254 273 332 353 10 37 8 347 337 330 325 324 324
204 209 219 227 231 231 224 218 218 218 215 212 211 212 214 217 220 222 225 229 233 239 247 254 262 267 263 256 255 262 271 266 248 232 221 215 216 219 219 220 222 222 220 215 207 203 206 208 208 209 212 213 213 213 211 209 209 210 209 207 207 207 210 217 223 227 230 238 260 279 286 283 276 292 328 328 320 336 335 324 318 313 311 316 320
211 214 225 230 232 233 226 216 213 213 212 211 211 211 211 212 215 219 225 230 235 242 250 254 259 265 267 264 264 272 283 282 255 235 224 218 218 221 221 219 220 222 222 219 215 213 216 218 217 217 220 220 218 216 214 212 211 210 207 206 207 209 213 217 224 234 237 237 249 270 282 288 290 298 308 303 293 298 306 305 302 300 307 315 318
216 220 227 229 231 236 230 217 211 208 208 210 212 212 211 212 215 220 224 228 234 242 249 252 256 262 266 266 265 272 280 277 251 233 228 223 222 224 223 220 220 222 222 223 222 220 220 222 223 225 230 229 223 218 216 213 211 207 205 207 210 214 221 225 229 238 241 237 247 267 277 283 291 294 292 283 280 288 295 296 296 301 309 315 316
206 210 216 222 229 233 227 217 211 210 211 213 214 214 214 217 219 221 222 225 230 235 239 243 249 253 256 259 264 274 282 272 245 232 233 230 227 226 224 222 223 224 223 224 225 223 221 221 225 232 240 238 228 220 215 210 206 205 209 214 217 221 231 236 234 239 244 244 251 266 276 283 283 276 270 274 281 286 289 292 298 305 311 314 314
195 192 201 218 229 230 224 219 215 214 214 214 216 218 219 221 222 224 226 227 228 229 232 236 239 241 244 251 261 270 271 261 256 256 248 239 232 228 225 223 223 224 224 224 227 227 226 227 231 236 242 242 230 217 208 203 203 208 216 221 224 227 233 231 228 235 243 244 249 260 269 267 259 259 266 276 280 283 289 294 300 307 312 314 315
199 194 196 210 229 233 228 222 220 219 217 216 218 220 221 222 224 229 234 234 233 234 235 235 236 239 243 249 257 257 250 253 260 256 252 253 239 228 224 223 222 222 222 223 226 229 231 236 239 241 244 244 228 209 202 203 208 214 220 226 229 231 232 230 231 237 240 240 245 255 261 256 256 262 272 278 281 286 291 296 302 308 313 315 316
206 201 199 203 219 233 233 228 226 225 223 221 221 223 225 227 233 238 238 237 238 241 241 240 240 242 244 248 252 249 241 240 239 235 237 247 241 227 224 224 224 225 226 226 227 230 233 238 242 244 246 242 224 207 203 207 212 216 222 228 231 234 234 235 237 239 238 239 244 250 255 260 267 274 280 283 287 291 294 298 304 311 315 315 317
215 207 200 200 211 225 231 232 231 229 228 226 226 229 233 236 240 241 238 236 237 241 244 246 247 247 247 247 246 244 241 239 236 231 229 233 234 232 231 230 230 231 232 231 232 234 236 240 244 246 245 239 224 211 207 209 214 219 222 227 232 236 235 237 239 238 236 240 243 245 252 268 279 284 284 286 290 294 297 303 310 313 314 316 319
222 215 206 207 217 222 224 228 230 230 229 230 232 235 239 240 240 239 239 239 241 244 246 249 250 251 250 248 244 240 240 240 237 231 227 224 224 226 230 233 236 237 238 237 237 239 241 245 249 249 246 237 224 214 212 216 224 226 225 227 232 235 235 237 237 234 234 238 239 241 257 277 283 284 285 290 297 301 304 309 312 312 314 318 322
226 222 216 217 224 227 225 224 226 228 229 233 238 241 242 243 242 240 238 239 243 247 249 252 253 253 252 251 246 240 239 238 234 229 224 220 217 219 225 230 236 240 241 241 241 243 245 248 250 250 246 233 221 216 218 226 233 233 229 226 229 233 235 235 235 232 230 231 234 245 267 278 277 278 287 299 304 306 308 309 309 311 315 320 322
225 223 221 220 225 230 230 226 225 227 232 237 242 243 243 242 242 240 238 238 241 246 252 256 258 257 256 254 248 242 241 241 238 233 227 221 217 218 223 229 233 237 239 240 241 242 245 247 247 245 241 230 220 218 222 229 233 230 225 222 226 233 235 234 233 230 226 227 240 259 270 272 271 281 297 305 305 305 305 306 308 313 317 320 321
225 225 225 225 227 232 234 232 230 232 236 240 244 244 242 239 239 240 240 241 243 249 255 260 261 259 255 253 251 249 249 249 244 238 231 224 220 222 226 231 233 233 235 238 239 239 242 243 242 242 241 231 222 221 226 232 228 222 218 219 224 229 230 230 229 227 228 239 255 264 265 266 277 295 305 304 301 300 302 304 308 314 317 318 318
228 230 231 233 235 235 235 234 233 234 235 238 241 240 237 236 236 238 241 243 246 252 256 258 259 258 255 256 257 256 253 249 244 238 231 224 223 227 231 233 235 236 241 245 244 243 244 245 246 248 243 230 222 222 231 236 228 219 216 219 222 224 227 227 226 231 243 255 260 261 263 275 293 301 301 298 295 296 299 304 309 314 316 316 315
234 235 237 240 241 239 235 233 234 236 238 240 239 236 234 235 237 239 242 245 248 253 256 258 260 261 262 260 254 244 238 237 237 235 231 228 228 232 234 234 236 241 248 252 252 251 249 246 245 242 234 225 222 225 232 234 226 217 214 217 222 224 225 224 229 247 259 260 259 263 275 289 296 296 293 290 290 294 299 306 310 312 313 313 313
235 237 239 241 241 239 235 232 234 239 242 241 237 234 233 235 236 239 244 248 250 254 257 260 262 264 262 253 238 228 228 232 232 234 236 237 238 240 240 237 238 245 252 255 255 252 243 235 233 230 225 223 225 228 230 229 220 213 214 219 221 218 218 228 249 262 261 258 262 275 285 290 291 290 286 286 290 295 301 306 309 310 311 312 313
236 239 241 241 239 236 233 231 233 238 240 237 233 232 233 236 239 243 247 250 252 253 255 257 258 257 253 243 233 230 232 233 233 238 243 243 242 243 241 238 241 247 251 253 253 243 227 220 222 227 224 222 223 225 228 227 219 215 219 222 218 216 229 253 262 261 259 263 273 281 284 286 286 283 281 285 291 297 301 305 308 309 311 312 313
230 237 240 240 240 239 236 233 232 233 234 233 230 228 229 234 240 246 248 248 248 247 246 247 249 247 241 232 228 232 235 234 234 239 241 241 241 241 239 239 241 242 241 244 244 230 215 214 221 222 217 217 220 223 224 221 215 213 214 216 218 231 251 260 258 259 264 271 275 278 280 283 281 278 280 286 293 298 303 306 309 310 311 312 313
220 229 235 238 240 240 239 235 232 230 229 228 226 225 230 237 242 244 241 240 239 238 237 238 241 238 230 222 222 230 237 239 240 239 234 231 232 230 229 231 232 227 225 231 230 214 206 211 215 204 201 210 216 217 215 214 213 213 215 220 232 249 258 258 258 263 268 271 274 277 281 281 278 277 282 289 296 302 306 308 309 311 311 311 311
219 226 231 234 236 237 235 232 228 224 222 222 224 230 237 242 242 239 236 234 233 232 233 236 238 234 226 222 223 229 234 238 242 241 233 225 218 213 213 215 213 209 211 218 213 201 198 202 200 192 198 211 214 211 212 217 222 228 232 240 251 259 260 259 261 265 269 272 277 280 281 278 277 279 286 295 301 305 308 309 309 310 310 309 309
218 225 227 227 229 232 232 230 228 225 224 227 234 241 242 241 238 236 234 233 231 231 233 237 237 232 228 228 228 227 229 232 240 245 237 223 207 200 202 202 201 204 210 211 204 196 192 191 189 192 204 216 218 217 221 227 232 238 246 255 261 262 261 261 264 269 273 276 278 279 277 277 279 285 294 300 304 306 308 309 309 308 308 307 308
212 218 220 220 223 227 230 232 233 233 234 238 243 244 242 237 235 233 231 229 230 232 235 237 236 234 233 233 230 226 226 229 237 243 232 215 203 204 208 208 207 208 207 203 200 196 191 186 188 196 208 219 223 226 230 235 241 248 255 260 261 260 261 264 269 273 276 276 276 276 277 280 286 293 298 301 304 307 308 307 307 306 305 304 306
213 214 212 214 218 221 223 226 227 228 231 235 238 239 238 235 231 229 229 230 232 236 237 237 236 236 234 232 230 229 227 227 230 228 216 207 208 217 221 219 218 213 204 199 200 200 195 193 199 208 218 226 232 236 240 247 254 257 258 258 258 260 264 269 273 276 278 277 275 276 279 286 292 296 299 303 305 306 306 306 304 304 303 303 305